Year,Month,Day,Hour,Minute,Value (Times are PST for temperature in C)
2007,08,27,00,00,13.20
2007,08,27,00,01,13.20
2007,08,27,00,02,13.20
2007,08,27,00,03,13.10
2007,08,27,00,04,13.10
2007,08,27,00,05,13.10
2007,08,27,00,06,13.10
2007,08,27,00,07,13.10
2007,08,27,00,08,13.10
2007,08,27,00,09,13.10
2007,08,27,00,10,13.10
2007,08,27,00,11,13.10
2007,08,27,00,12,13.10
2007,08,27,00,13,13.00
2007,08,27,00,14,13.00
2007,08,27,00,15,13.00
2007,08,27,00,16,13.00
2007,08,27,00,17,13.00
2007,08,27,00,18,13.00
2007,08,27,00,19,13.00
2007,08,27,00,20,13.00
2007,08,27,00,21,13.00
2007,08,27,00,22,13.00
2007,08,27,00,23,13.00
2007,08,27,00,24,13.00
2007,08,27,00,25,13.00
2007,08,27,00,26,13.00
2007,08,27,00,27,12.90
2007,08,27,00,28,12.90
2007,08,27,00,29,12.90
2007,08,27,00,30,12.90
2007,08,27,00,31,12.90
2007,08,27,00,32,12.90
2007,08,27,00,33,12.90
2007,08,27,00,34,12.90
2007,08,27,00,35,12.80
2007,08,27,00,36,12.80
2007,08,27,00,37,12.80
2007,08,27,00,38,12.80
2007,08,27,00,39,12.80
2007,08,27,00,40,12.80
2007,08,27,00,41,12.80
2007,08,27,00,42,12.80
2007,08,27,00,43,12.80
2007,08,27,00,44,12.80
2007,08,27,00,45,12.80
2007,08,27,00,46,12.80
2007,08,27,00,47,12.80
2007,08,27,00,48,12.80
2007,08,27,00,49,12.70
2007,08,27,00,50,12.70
2007,08,27,00,51,12.70
2007,08,27,00,52,12.70
2007,08,27,00,53,12.70
2007,08,27,00,54,12.70
2007,08,27,00,55,12.70
2007,08,27,00,56,12.70
2007,08,27,00,57,12.70
2007,08,27,00,58,12.70
2007,08,27,00,59,12.60
2007,08,27,01,00,12.60
2007,08,27,01,01,12.60
2007,08,27,01,02,12.60
2007,08,27,01,03,12.60
2007,08,27,01,04,12.60
2007,08,27,01,05,12.60
2007,08,27,01,06,12.50
2007,08,27,01,07,12.50
2007,08,27,01,08,12.50
2007,08,27,01,09,12.50
2007,08,27,01,10,12.50
2007,08,27,01,11,12.50
2007,08,27,01,12,12.50
2007,08,27,01,13,12.50
2007,08,27,01,14,12.50
2007,08,27,01,15,12.50
2007,08,27,01,16,12.50
2007,08,27,01,17,12.50
2007,08,27,01,18,12.50
2007,08,27,01,19,12.50
2007,08,27,01,20,12.50
2007,08,27,01,21,12.50
2007,08,27,01,22,12.50
2007,08,27,01,23,12.50
2007,08,27,01,24,12.50
2007,08,27,01,25,12.50
2007,08,27,01,26,12.50
2007,08,27,01,27,12.50
2007,08,27,01,28,12.50
2007,08,27,01,29,12.50
2007,08,27,01,30,12.50
2007,08,27,01,31,12.50
2007,08,27,01,32,12.50
2007,08,27,01,33,12.50
2007,08,27,01,34,12.40
2007,08,27,01,35,12.40
2007,08,27,01,36,12.40
2007,08,27,01,37,12.40
2007,08,27,01,38,12.40
2007,08,27,01,39,12.40
2007,08,27,01,40,12.40
2007,08,27,01,41,12.40
2007,08,27,01,42,12.40
2007,08,27,01,43,12.40
2007,08,27,01,44,12.40
2007,08,27,01,45,12.40
2007,08,27,01,46,12.40
2007,08,27,01,47,12.40
2007,08,27,01,48,12.40
2007,08,27,01,49,12.40
2007,08,27,01,50,12.30
2007,08,27,01,51,12.30
2007,08,27,01,52,12.30
2007,08,27,01,53,12.30
2007,08,27,01,54,12.30
2007,08,27,01,55,12.30
2007,08,27,01,56,12.30
2007,08,27,01,57,12.30
2007,08,27,01,58,12.30
2007,08,27,01,59,12.30
2007,08,27,02,00,12.30
2007,08,27,02,01,12.30
2007,08,27,02,02,12.20
2007,08,27,02,03,12.20
2007,08,27,02,04,12.20
2007,08,27,02,05,12.20
2007,08,27,02,06,12.20
2007,08,27,02,07,12.20
2007,08,27,02,08,12.20
2007,08,27,02,09,12.20
2007,08,27,02,10,12.20
2007,08,27,02,11,12.20
2007,08,27,02,12,12.20
2007,08,27,02,13,12.20
2007,08,27,02,14,12.20
2007,08,27,02,15,12.20
2007,08,27,02,16,12.30
2007,08,27,02,17,12.30
2007,08,27,02,18,12.30
2007,08,27,02,19,12.30
2007,08,27,02,20,12.30
2007,08,27,02,21,12.30
2007,08,27,02,22,12.30
2007,08,27,02,23,12.30
2007,08,27,02,24,12.30
2007,08,27,02,25,12.30
2007,08,27,02,26,12.30
2007,08,27,02,27,12.30
2007,08,27,02,28,12.30
2007,08,27,02,29,12.20
2007,08,27,02,30,12.20
2007,08,27,02,31,12.20
2007,08,27,02,32,12.20
2007,08,27,02,33,12.20
2007,08,27,02,34,12.20
2007,08,27,02,35,12.20
2007,08,27,02,36,12.20
2007,08,27,02,37,12.20
2007,08,27,02,38,12.20
2007,08,27,02,39,12.20
2007,08,27,02,40,12.10
2007,08,27,02,41,12.10
2007,08,27,02,42,12.10
2007,08,27,02,43,12.10
2007,08,27,02,44,12.10
2007,08,27,02,45,12.10
2007,08,27,02,46,12.10
2007,08,27,02,47,12.10
2007,08,27,02,48,12.10
2007,08,27,02,49,12.10
2007,08,27,02,50,12.10
2007,08,27,02,51,12.10
2007,08,27,02,52,12.00
2007,08,27,02,53,12.00
2007,08,27,02,54,12.00
2007,08,27,02,55,12.00
2007,08,27,02,56,12.00
2007,08,27,02,57,12.00
2007,08,27,02,58,12.00
2007,08,27,02,59,12.00
2007,08,27,03,00,12.00
2007,08,27,03,01,12.00
2007,08,27,03,02,12.00
2007,08,27,03,03,12.00
2007,08,27,03,04,12.00
2007,08,27,03,05,12.00
2007,08,27,03,06,12.00
2007,08,27,03,07,12.00
2007,08,27,03,08,12.00
2007,08,27,03,09,12.00
2007,08,27,03,10,12.00
2007,08,27,03,11,12.10
2007,08,27,03,12,12.10
2007,08,27,03,13,12.10
2007,08,27,03,14,12.10
2007,08,27,03,15,12.10
2007,08,27,03,16,12.10
2007,08,27,03,17,12.10
2007,08,27,03,18,12.10
2007,08,27,03,19,12.10
2007,08,27,03,20,12.10
2007,08,27,03,21,12.10
2007,08,27,03,22,12.10
2007,08,27,03,23,12.10
2007,08,27,03,24,12.10
2007,08,27,03,25,12.10
2007,08,27,03,26,12.10
2007,08,27,03,27,12.00
2007,08,27,03,28,12.00
2007,08,27,03,29,12.00
2007,08,27,03,30,12.00
2007,08,27,03,31,12.00
2007,08,27,03,32,12.00
2007,08,27,03,33,12.00
2007,08,27,03,34,12.00
2007,08,27,03,35,12.00
2007,08,27,03,36,12.00
2007,08,27,03,37,12.00
2007,08,27,03,38,12.10
2007,08,27,03,39,12.10
2007,08,27,03,40,12.10
2007,08,27,03,41,12.10
2007,08,27,03,42,12.10
2007,08,27,03,43,12.10
2007,08,27,03,44,12.10
2007,08,27,03,45,12.00
2007,08,27,03,46,12.00
2007,08,27,03,47,12.00
2007,08,27,03,48,12.00
2007,08,27,03,49,12.00
2007,08,27,03,50,12.00
2007,08,27,03,51,12.00
2007,08,27,03,52,12.00
2007,08,27,03,53,11.90
2007,08,27,03,54,11.90
2007,08,27,03,55,11.90
2007,08,27,03,56,11.90
2007,08,27,03,57,11.90
2007,08,27,03,58,11.90
2007,08,27,03,59,11.90
2007,08,27,04,00,11.90
2007,08,27,04,01,11.90
2007,08,27,04,02,11.80
2007,08,27,04,03,11.80
2007,08,27,04,04,11.80
2007,08,27,04,05,11.80
2007,08,27,04,06,11.80
2007,08,27,04,07,11.80
2007,08,27,04,08,11.80
2007,08,27,04,09,11.80
2007,08,27,04,10,11.80
2007,08,27,04,11,11.80
2007,08,27,04,12,11.80
2007,08,27,04,13,11.80
2007,08,27,04,14,11.70
2007,08,27,04,15,11.70
2007,08,27,04,16,11.70
2007,08,27,04,17,11.70
2007,08,27,04,18,11.70
2007,08,27,04,19,11.70
2007,08,27,04,20,11.60
2007,08,27,04,21,11.60
2007,08,27,04,22,11.60
2007,08,27,04,23,11.60
2007,08,27,04,24,11.60
2007,08,27,04,25,11.60
2007,08,27,04,26,11.60
2007,08,27,04,27,11.60
2007,08,27,04,28,11.60
2007,08,27,04,29,11.60
2007,08,27,04,30,11.60
2007,08,27,04,31,11.60
2007,08,27,04,32,11.60
2007,08,27,04,33,11.60
2007,08,27,04,34,11.60
2007,08,27,04,35,11.60
2007,08,27,04,36,11.50
2007,08,27,04,37,11.40
2007,08,27,04,38,11.40
2007,08,27,04,39,11.40
2007,08,27,04,40,11.40
2007,08,27,04,41,11.40
2007,08,27,04,42,11.40
2007,08,27,04,43,11.40
2007,08,27,04,44,11.40
2007,08,27,04,45,11.40
2007,08,27,04,46,11.40
2007,08,27,04,47,11.40
2007,08,27,04,48,11.40
2007,08,27,04,49,11.40
2007,08,27,04,50,11.40
2007,08,27,04,51,11.40
2007,08,27,04,52,11.40
2007,08,27,04,53,11.40
2007,08,27,04,54,11.40
2007,08,27,04,55,11.40
2007,08,27,04,56,11.40
2007,08,27,04,57,11.40
2007,08,27,04,58,11.40
2007,08,27,04,59,11.30
2007,08,27,05,00,11.30
2007,08,27,05,01,11.30
2007,08,27,05,02,11.30
2007,08,27,05,03,11.30
2007,08,27,05,04,11.30
2007,08,27,05,05,11.30
2007,08,27,05,06,11.30
2007,08,27,05,07,11.30
2007,08,27,05,08,11.30
2007,08,27,05,09,11.30
2007,08,27,05,10,11.30
2007,08,27,05,11,11.30
2007,08,27,05,12,11.30
2007,08,27,05,13,11.30
2007,08,27,05,14,11.30
2007,08,27,05,15,11.30
2007,08,27,05,16,11.30
2007,08,27,05,17,11.30
2007,08,27,05,18,11.30
2007,08,27,05,19,11.30
2007,08,27,05,20,11.30
2007,08,27,05,21,11.30
2007,08,27,05,22,11.30
2007,08,27,05,23,11.20
2007,08,27,05,24,11.20
2007,08,27,05,25,11.20
2007,08,27,05,26,11.20
2007,08,27,05,27,11.20
2007,08,27,05,28,11.20
2007,08,27,05,29,11.20
2007,08,27,05,30,11.20
2007,08,27,05,31,11.20
2007,08,27,05,32,11.20
2007,08,27,05,33,11.20
2007,08,27,05,34,11.20
2007,08,27,05,35,11.20
2007,08,27,05,36,11.20
2007,08,27,05,37,11.20
2007,08,27,05,38,11.20
2007,08,27,05,39,11.20
2007,08,27,05,40,11.20
2007,08,27,05,41,11.20
2007,08,27,05,42,11.20
2007,08,27,05,43,11.20
2007,08,27,05,44,11.20
2007,08,27,05,45,11.20
2007,08,27,05,46,11.20
2007,08,27,05,47,11.20
2007,08,27,05,48,11.20
2007,08,27,05,49,11.30
2007,08,27,05,50,11.30
2007,08,27,05,51,11.30
2007,08,27,05,52,11.30
2007,08,27,05,53,11.30
2007,08,27,05,54,11.30
2007,08,27,05,55,11.30
2007,08,27,05,56,11.30
2007,08,27,05,57,11.30
2007,08,27,05,58,11.30
2007,08,27,05,59,11.30
2007,08,27,06,00,11.30
2007,08,27,06,01,11.30
2007,08,27,06,02,11.30
2007,08,27,06,03,11.30
2007,08,27,06,04,11.30
2007,08,27,06,05,11.40
2007,08,27,06,06,11.40
2007,08,27,06,07,11.40
2007,08,27,06,08,11.40
2007,08,27,06,09,11.40
2007,08,27,06,10,11.40
2007,08,27,06,11,11.40
2007,08,27,06,12,11.40
2007,08,27,06,13,11.40
2007,08,27,06,14,11.40
2007,08,27,06,15,11.40
2007,08,27,06,16,11.40
2007,08,27,06,17,11.30
2007,08,27,06,18,11.30
2007,08,27,06,19,11.30
2007,08,27,06,20,11.20
2007,08,27,06,21,11.20
2007,08,27,06,22,11.20
2007,08,27,06,23,11.10
2007,08,27,06,24,11.10
2007,08,27,06,25,11.10
2007,08,27,06,26,11.10
2007,08,27,06,27,11.20
2007,08,27,06,28,11.20
2007,08,27,06,29,11.20
2007,08,27,06,30,11.20
2007,08,27,06,31,11.20
2007,08,27,06,32,11.20
2007,08,27,06,33,11.20
2007,08,27,06,34,11.20
2007,08,27,06,35,11.30
2007,08,27,06,36,11.30
2007,08,27,06,37,11.30
2007,08,27,06,38,11.20
2007,08,27,06,39,11.20
2007,08,27,06,40,11.20
2007,08,27,06,41,11.20
2007,08,27,06,42,11.20
2007,08,27,06,43,11.20
2007,08,27,06,44,11.20
2007,08,27,06,45,11.20
2007,08,27,06,46,11.20
2007,08,27,06,47,11.20
2007,08,27,06,48,11.20
2007,08,27,06,49,11.20
2007,08,27,06,50,11.20
2007,08,27,06,51,11.20
2007,08,27,06,52,11.20
2007,08,27,06,53,11.20
2007,08,27,06,54,11.20
2007,08,27,06,55,11.20
2007,08,27,06,56,11.20
2007,08,27,06,57,11.30
2007,08,27,06,58,11.30
2007,08,27,06,59,11.30
2007,08,27,07,00,11.40
2007,08,27,07,01,11.40
2007,08,27,07,02,11.50
2007,08,27,07,03,11.60
2007,08,27,07,04,11.60
2007,08,27,07,05,11.60
2007,08,27,07,06,11.60
2007,08,27,07,07,11.70
2007,08,27,07,08,11.70
2007,08,27,07,09,11.70
2007,08,27,07,10,11.80
2007,08,27,07,11,11.80
2007,08,27,07,12,11.80
2007,08,27,07,13,11.80
2007,08,27,07,14,11.80
2007,08,27,07,15,11.80
2007,08,27,07,16,11.80
2007,08,27,07,17,11.80
2007,08,27,07,18,11.90
2007,08,27,07,19,11.90
2007,08,27,07,20,11.90
2007,08,27,07,21,12.00
2007,08,27,07,22,12.00
2007,08,27,07,23,12.00
2007,08,27,07,24,12.10
2007,08,27,07,25,12.10
2007,08,27,07,26,12.10
2007,08,27,07,27,12.20
2007,08,27,07,28,12.20
2007,08,27,07,29,12.30
2007,08,27,07,30,12.30
2007,08,27,07,31,12.30
2007,08,27,07,32,12.30
2007,08,27,07,33,12.40
2007,08,27,07,34,12.40
2007,08,27,07,35,12.40
2007,08,27,07,36,12.50
2007,08,27,07,37,12.50
2007,08,27,07,38,12.60
2007,08,27,07,39,12.60
2007,08,27,07,40,12.70
2007,08,27,07,41,12.70
2007,08,27,07,42,12.80
2007,08,27,07,43,12.80
2007,08,27,07,44,12.80
2007,08,27,07,45,12.80
2007,08,27,07,46,12.90
2007,08,27,07,47,12.90
2007,08,27,07,48,13.00
2007,08,27,07,49,13.00
2007,08,27,07,50,13.10
2007,08,27,07,51,13.20
2007,08,27,07,52,13.20
2007,08,27,07,53,13.30
2007,08,27,07,54,13.30
2007,08,27,07,55,13.40
2007,08,27,07,56,13.40
2007,08,27,07,57,13.50
2007,08,27,07,58,13.60
2007,08,27,07,59,13.70
2007,08,27,08,00,13.70
2007,08,27,08,01,13.90
2007,08,27,08,02,14.00
2007,08,27,08,03,14.10
2007,08,27,08,04,14.10
2007,08,27,08,05,14.10
2007,08,27,08,06,14.20
2007,08,27,08,07,14.20
2007,08,27,08,08,14.20
2007,08,27,08,09,14.20
2007,08,27,08,10,14.20
2007,08,27,08,11,14.20
2007,08,27,08,12,14.20
2007,08,27,08,13,14.30
2007,08,27,08,14,14.40
2007,08,27,08,15,14.50
2007,08,27,08,16,14.60
2007,08,27,08,17,14.60
2007,08,27,08,18,14.70
2007,08,27,08,19,14.70
2007,08,27,08,20,14.70
2007,08,27,08,21,14.70
2007,08,27,08,22,14.70
2007,08,27,08,23,14.80
2007,08,27,08,24,14.90
2007,08,27,08,25,15.10
2007,08,27,08,26,15.20
2007,08,27,08,27,15.30
2007,08,27,08,28,15.40
2007,08,27,08,29,15.50
2007,08,27,08,30,15.60
2007,08,27,08,31,15.60
2007,08,27,08,32,15.70
2007,08,27,08,33,15.80
2007,08,27,08,34,15.80
2007,08,27,08,35,15.80
2007,08,27,08,36,15.80
2007,08,27,08,37,15.80
2007,08,27,08,38,15.80
2007,08,27,08,39,15.70
2007,08,27,08,40,15.60
2007,08,27,08,41,15.50
2007,08,27,08,42,15.50
2007,08,27,08,43,15.40
2007,08,27,08,44,15.40
2007,08,27,08,45,15.30
2007,08,27,08,46,15.20
2007,08,27,08,47,15.10
2007,08,27,08,48,15.10
2007,08,27,08,49,15.10
2007,08,27,08,50,15.10
2007,08,27,08,51,15.00
2007,08,27,08,52,15.00
2007,08,27,08,53,15.00
2007,08,27,08,54,14.90
2007,08,27,08,55,14.90
2007,08,27,08,56,14.90
2007,08,27,08,57,15.00
2007,08,27,08,58,15.00
2007,08,27,08,59,15.10
2007,08,27,09,00,15.10
2007,08,27,09,01,15.10
2007,08,27,09,02,15.10
2007,08,27,09,03,15.10
2007,08,27,09,04,15.00
2007,08,27,09,05,15.00
2007,08,27,09,06,14.90
2007,08,27,09,07,14.80
2007,08,27,09,08,14.80
2007,08,27,09,09,14.80
2007,08,27,09,10,14.80
2007,08,27,09,11,14.80
2007,08,27,09,12,14.90
2007,08,27,09,13,14.90
2007,08,27,09,14,14.90
2007,08,27,09,15,14.90
2007,08,27,09,16,14.90
2007,08,27,09,17,14.90
2007,08,27,09,18,14.80
2007,08,27,09,19,14.80
2007,08,27,09,20,14.80
2007,08,27,09,21,14.80
2007,08,27,09,22,14.80
2007,08,27,09,23,14.90
2007,08,27,09,24,14.90
2007,08,27,09,25,14.90
2007,08,27,09,26,14.90
2007,08,27,09,27,14.80
2007,08,27,09,28,14.80
2007,08,27,09,29,14.80
2007,08,27,09,30,14.80
2007,08,27,09,31,14.80
2007,08,27,09,32,14.90
2007,08,27,09,33,14.90
2007,08,27,09,34,14.90
2007,08,27,09,35,14.90
2007,08,27,09,36,14.80
2007,08,27,09,37,14.80
2007,08,27,09,38,14.80
2007,08,27,09,39,14.70
2007,08,27,09,40,14.70
2007,08,27,09,41,14.70
2007,08,27,09,42,14.70
2007,08,27,09,43,14.70
2007,08,27,09,44,14.80
2007,08,27,09,45,14.80
2007,08,27,09,46,14.80
2007,08,27,09,47,14.80
2007,08,27,09,48,14.90
2007,08,27,09,49,14.90
2007,08,27,09,50,14.90
2007,08,27,09,51,15.00
2007,08,27,09,52,15.00
2007,08,27,09,53,15.10
2007,08,27,09,54,15.10
2007,08,27,09,55,15.20
2007,08,27,09,56,15.20
2007,08,27,09,57,15.20
2007,08,27,09,58,15.30
2007,08,27,09,59,15.20
2007,08,27,10,00,15.20
2007,08,27,10,01,15.20
2007,08,27,10,02,15.10
2007,08,27,10,03,15.10
2007,08,27,10,04,15.10
2007,08,27,10,05,15.10
2007,08,27,10,06,15.00
2007,08,27,10,07,15.00
2007,08,27,10,08,15.00
2007,08,27,10,09,15.00
2007,08,27,10,10,15.00
2007,08,27,10,11,15.00
2007,08,27,10,12,15.10
2007,08,27,10,13,15.10
2007,08,27,10,14,15.20
2007,08,27,10,15,15.30
2007,08,27,10,16,15.30
2007,08,27,10,17,15.30
2007,08,27,10,18,15.40
2007,08,27,10,19,15.50
2007,08,27,10,20,15.60
2007,08,27,10,21,15.70
2007,08,27,10,22,15.80
2007,08,27,10,23,15.80
2007,08,27,10,24,15.80
2007,08,27,10,25,15.70
2007,08,27,10,26,15.70
2007,08,27,10,27,15.80
2007,08,27,10,28,15.70
2007,08,27,10,29,15.70
2007,08,27,10,30,15.70
2007,08,27,10,31,15.60
2007,08,27,10,32,15.60
2007,08,27,10,33,15.70
2007,08,27,10,34,15.80
2007,08,27,10,35,15.80
2007,08,27,10,36,15.80
2007,08,27,10,37,15.80
2007,08,27,10,38,15.80
2007,08,27,10,39,15.90
2007,08,27,10,40,16.00
2007,08,27,10,41,16.10
2007,08,27,10,42,16.00
2007,08,27,10,43,15.90
2007,08,27,10,44,16.00
2007,08,27,10,45,16.10
2007,08,27,10,46,16.10
2007,08,27,10,47,16.10
2007,08,27,10,48,16.10
2007,08,27,10,49,16.00
2007,08,27,10,50,15.90
2007,08,27,10,51,15.90
2007,08,27,10,52,15.90
2007,08,27,10,53,15.90
2007,08,27,10,54,16.10
2007,08,27,10,55,16.10
2007,08,27,10,56,16.10
2007,08,27,10,57,16.10
2007,08,27,10,58,16.10
2007,08,27,10,59,16.10
2007,08,27,11,00,16.10
2007,08,27,11,01,16.10
2007,08,27,11,02,15.90
2007,08,27,11,03,16.00
2007,08,27,11,04,16.10
2007,08,27,11,05,16.10
2007,08,27,11,06,16.10
2007,08,27,11,07,16.10
2007,08,27,11,08,16.10
2007,08,27,11,09,16.10
2007,08,27,11,10,16.10
2007,08,27,11,11,16.10
2007,08,27,11,12,16.10
2007,08,27,11,13,16.10
2007,08,27,11,14,16.10
2007,08,27,11,15,16.10
2007,08,27,11,16,16.20
2007,08,27,11,17,16.30
2007,08,27,11,18,16.40
2007,08,27,11,19,16.40
2007,08,27,11,20,16.40
2007,08,27,11,21,16.40
2007,08,27,11,22,16.40
2007,08,27,11,23,16.50
2007,08,27,11,24,16.60
2007,08,27,11,25,16.50
2007,08,27,11,26,16.40
2007,08,27,11,27,16.40
2007,08,27,11,28,16.30
2007,08,27,11,29,16.30
2007,08,27,11,30,16.20
2007,08,27,11,31,16.20
2007,08,27,11,32,16.20
2007,08,27,11,33,16.20
2007,08,27,11,34,16.30
2007,08,27,11,35,16.30
2007,08,27,11,36,16.30
2007,08,27,11,37,16.30
2007,08,27,11,38,16.30
2007,08,27,11,39,16.40
2007,08,27,11,40,16.40
2007,08,27,11,41,16.40
2007,08,27,11,42,16.40
2007,08,27,11,43,16.40
2007,08,27,11,44,16.40
2007,08,27,11,45,16.40
2007,08,27,11,46,16.50
2007,08,27,11,47,16.60
2007,08,27,11,48,16.70
2007,08,27,11,49,16.70
2007,08,27,11,50,16.80
2007,08,27,11,51,16.90
2007,08,27,11,52,16.90
2007,08,27,11,53,16.90
2007,08,27,11,54,16.90
2007,08,27,11,55,17.00
2007,08,27,11,56,17.10
2007,08,27,11,57,17.20
2007,08,27,11,58,17.10
2007,08,27,11,59,17.10
2007,08,27,12,00,17.10
2007,08,27,12,01,17.00
2007,08,27,12,02,16.90
2007,08,27,12,03,17.00
2007,08,27,12,04,17.00
2007,08,27,12,05,16.90
2007,08,27,12,06,17.00
2007,08,27,12,07,17.00
2007,08,27,12,08,16.90
2007,08,27,12,09,16.70
2007,08,27,12,10,16.60
2007,08,27,12,11,16.50
2007,08,27,12,12,16.40
2007,08,27,12,13,16.40
2007,08,27,12,14,16.50
2007,08,27,12,15,16.60
2007,08,27,12,16,16.70
2007,08,27,12,17,16.70
2007,08,27,12,18,16.70
2007,08,27,12,19,16.80
2007,08,27,12,20,16.90
2007,08,27,12,21,16.90
2007,08,27,12,22,17.00
2007,08,27,12,23,17.10
2007,08,27,12,24,17.20
2007,08,27,12,25,17.20
2007,08,27,12,26,17.30
2007,08,27,12,27,17.20
2007,08,27,12,28,17.10
2007,08,27,12,29,17.00
2007,08,27,12,30,16.90
2007,08,27,12,31,16.90
2007,08,27,12,32,16.80
2007,08,27,12,33,16.70
2007,08,27,12,34,16.70
2007,08,27,12,35,16.70
2007,08,27,12,36,16.70
2007,08,27,12,37,16.60
2007,08,27,12,38,16.60
2007,08,27,12,39,16.50
2007,08,27,12,40,16.40
2007,08,27,12,41,16.40
2007,08,27,12,42,16.40
2007,08,27,12,43,16.40
2007,08,27,12,44,16.40
2007,08,27,12,45,16.30
2007,08,27,12,46,16.20
2007,08,27,12,47,16.20
2007,08,27,12,48,16.10
2007,08,27,12,49,16.10
2007,08,27,12,50,16.20
2007,08,27,12,51,16.30
2007,08,27,12,52,16.40
2007,08,27,12,53,16.40
2007,08,27,12,54,16.50
2007,08,27,12,55,16.60
2007,08,27,12,56,16.60
2007,08,27,12,57,16.60
2007,08,27,12,58,16.50
2007,08,27,12,59,16.60
2007,08,27,13,00,16.60
2007,08,27,13,01,16.70
2007,08,27,13,02,16.80
2007,08,27,13,03,16.90
2007,08,27,13,04,16.90
2007,08,27,13,05,17.00
2007,08,27,13,06,17.00
2007,08,27,13,07,17.10
2007,08,27,13,08,17.10
2007,08,27,13,09,17.20
2007,08,27,13,10,17.20
2007,08,27,13,11,17.20
2007,08,27,13,12,17.30
2007,08,27,13,13,17.20
2007,08,27,13,14,17.20
2007,08,27,13,15,17.20
2007,08,27,13,16,17.20
2007,08,27,13,17,17.10
2007,08,27,13,18,17.00
2007,08,27,13,19,17.00
2007,08,27,13,20,17.00
2007,08,27,13,21,17.00
2007,08,27,13,22,17.00
2007,08,27,13,23,17.00
2007,08,27,13,24,17.00
2007,08,27,13,25,17.00
2007,08,27,13,26,17.10
2007,08,27,13,27,17.10
2007,08,27,13,28,17.10
2007,08,27,13,29,17.10
2007,08,27,13,30,17.10
2007,08,27,13,31,17.10
2007,08,27,13,32,17.20
2007,08,27,13,33,17.30
2007,08,27,13,34,17.30
2007,08,27,13,35,17.30
2007,08,27,13,36,17.30
2007,08,27,13,37,17.30
2007,08,27,13,38,17.30
2007,08,27,13,39,17.30
2007,08,27,13,40,17.30
2007,08,27,13,41,17.40
2007,08,27,13,42,17.50
2007,08,27,13,43,17.60
2007,08,27,13,44,17.60
2007,08,27,13,45,17.70
2007,08,27,13,46,17.70
2007,08,27,13,47,17.80
2007,08,27,13,48,17.80
2007,08,27,13,49,17.70
2007,08,27,13,50,17.70
2007,08,27,13,51,17.50
2007,08,27,13,52,17.40
2007,08,27,13,53,17.30
2007,08,27,13,54,17.30
2007,08,27,13,55,17.30
2007,08,27,13,56,17.30
2007,08,27,13,57,17.30
2007,08,27,13,58,17.30
2007,08,27,13,59,17.40
2007,08,27,14,00,17.40
2007,08,27,14,01,17.40
2007,08,27,14,02,17.40
2007,08,27,14,03,17.50
2007,08,27,14,04,17.50
2007,08,27,14,05,17.50
2007,08,27,14,06,17.50
2007,08,27,14,07,17.50
2007,08,27,14,08,17.60
2007,08,27,14,09,17.60
2007,08,27,14,10,17.70
2007,08,27,14,11,17.80
2007,08,27,14,12,17.80
2007,08,27,14,13,17.80
2007,08,27,14,14,17.70
2007,08,27,14,15,17.70
2007,08,27,14,16,17.80
2007,08,27,14,17,17.80
2007,08,27,14,18,17.80
2007,08,27,14,19,17.80
2007,08,27,14,20,17.80
2007,08,27,14,21,17.90
2007,08,27,14,22,17.90
2007,08,27,14,23,17.90
2007,08,27,14,24,17.90
2007,08,27,14,25,17.90
2007,08,27,14,26,17.90
2007,08,27,14,27,17.90
2007,08,27,14,28,17.80
2007,08,27,14,29,17.70
2007,08,27,14,30,17.80
2007,08,27,14,31,17.80
2007,08,27,14,32,17.80
2007,08,27,14,33,17.80
2007,08,27,14,34,17.60
2007,08,27,14,35,17.60
2007,08,27,14,36,17.50
2007,08,27,14,37,17.60
2007,08,27,14,38,17.70
2007,08,27,14,39,17.70
2007,08,27,14,40,17.80
2007,08,27,14,41,17.90
2007,08,27,14,42,18.00
2007,08,27,14,43,18.10
2007,08,27,14,44,18.10
2007,08,27,14,45,18.20
2007,08,27,14,46,18.20
2007,08,27,14,47,18.20
2007,08,27,14,48,18.20
2007,08,27,14,49,18.30
2007,08,27,14,50,18.40
2007,08,27,14,51,18.50
2007,08,27,14,52,18.60
2007,08,27,14,53,18.60
2007,08,27,14,54,18.60
2007,08,27,14,55,18.60
2007,08,27,14,56,18.60
2007,08,27,14,57,18.70
2007,08,27,14,58,18.70
2007,08,27,14,59,18.70
2007,08,27,15,00,18.60
2007,08,27,15,01,18.50
2007,08,27,15,02,18.40
2007,08,27,15,03,18.30
2007,08,27,15,04,18.30
2007,08,27,15,05,18.20
2007,08,27,15,06,18.20
2007,08,27,15,07,18.00
2007,08,27,15,08,17.90
2007,08,27,15,09,18.10
2007,08,27,15,10,18.20
2007,08,27,15,11,18.20
2007,08,27,15,12,18.40
2007,08,27,15,13,18.50
2007,08,27,15,14,18.60
2007,08,27,15,15,18.60
2007,08,27,15,16,18.70
2007,08,27,15,17,18.80
2007,08,27,15,18,18.80
2007,08,27,15,19,18.80
2007,08,27,15,20,18.90
2007,08,27,15,21,18.90
2007,08,27,15,22,18.90
2007,08,27,15,23,18.90
2007,08,27,15,24,19.00
2007,08,27,15,25,19.10
2007,08,27,15,26,19.10
2007,08,27,15,27,19.10
2007,08,27,15,28,19.00
2007,08,27,15,29,18.90
2007,08,27,15,30,19.00
2007,08,27,15,31,19.10
2007,08,27,15,32,19.10
2007,08,27,15,33,19.10
2007,08,27,15,34,19.30
2007,08,27,15,35,19.30
2007,08,27,15,36,19.30
2007,08,27,15,37,19.20
2007,08,27,15,38,19.10
2007,08,27,15,39,19.10
2007,08,27,15,40,18.90
2007,08,27,15,41,18.90
2007,08,27,15,42,18.90
2007,08,27,15,43,18.90
2007,08,27,15,44,18.90
2007,08,27,15,45,18.90
2007,08,27,15,46,18.90
2007,08,27,15,47,18.90
2007,08,27,15,48,18.90
2007,08,27,15,49,18.90
2007,08,27,15,50,18.90
2007,08,27,15,51,18.90
2007,08,27,15,52,18.90
2007,08,27,15,53,18.90
2007,08,27,15,54,18.90
2007,08,27,15,55,18.90
2007,08,27,15,56,19.00
2007,08,27,15,57,19.10
2007,08,27,15,58,19.10
2007,08,27,15,59,19.10
2007,08,27,16,00,19.10
2007,08,27,16,01,19.10
2007,08,27,16,02,19.10
2007,08,27,16,03,19.10
2007,08,27,16,04,18.90
2007,08,27,16,05,18.90
2007,08,27,16,06,18.90
2007,08,27,16,07,18.80
2007,08,27,16,08,18.70
2007,08,27,16,09,18.70
2007,08,27,16,10,18.60
2007,08,27,16,11,18.60
2007,08,27,16,12,18.60
2007,08,27,16,13,18.50
2007,08,27,16,14,18.50
2007,08,27,16,15,18.50
2007,08,27,16,16,18.40
2007,08,27,16,17,18.40
2007,08,27,16,18,18.40
2007,08,27,16,19,18.30
2007,08,27,16,20,18.30
2007,08,27,16,21,18.30
2007,08,27,16,22,18.40
2007,08,27,16,23,18.40
2007,08,27,16,24,18.40
2007,08,27,16,25,18.50
2007,08,27,16,26,18.50
2007,08,27,16,27,18.50
2007,08,27,16,28,18.50
2007,08,27,16,29,18.50
2007,08,27,16,30,18.50
2007,08,27,16,31,18.50
2007,08,27,16,32,18.50
2007,08,27,16,33,18.60
2007,08,27,16,34,18.60
2007,08,27,16,35,18.70
2007,08,27,16,36,18.70
2007,08,27,16,37,18.80
2007,08,27,16,38,18.80
2007,08,27,16,39,18.90
2007,08,27,16,40,18.90
2007,08,27,16,41,18.90
2007,08,27,16,42,18.90
2007,08,27,16,43,18.90
2007,08,27,16,44,18.90
2007,08,27,16,45,18.90
2007,08,27,16,46,18.90
2007,08,27,16,47,18.90
2007,08,27,16,48,18.90
2007,08,27,16,49,18.90
2007,08,27,16,50,18.80
2007,08,27,16,51,18.80
2007,08,27,16,52,18.80
2007,08,27,16,53,18.80
2007,08,27,16,54,18.80
2007,08,27,16,55,18.80
2007,08,27,16,56,18.80
2007,08,27,16,57,18.90
2007,08,27,16,58,18.90
2007,08,27,16,59,18.90
2007,08,27,17,00,19.00
2007,08,27,17,01,19.10
2007,08,27,17,02,19.10
2007,08,27,17,03,19.00
2007,08,27,17,04,18.90
2007,08,27,17,05,18.90
2007,08,27,17,06,18.80
2007,08,27,17,07,18.70
2007,08,27,17,08,18.70
2007,08,27,17,09,18.70
2007,08,27,17,10,18.70
2007,08,27,17,11,18.80
2007,08,27,17,12,18.90
2007,08,27,17,13,18.90
2007,08,27,17,14,19.10
2007,08,27,17,15,19.20
2007,08,27,17,16,19.30
2007,08,27,17,17,19.40
2007,08,27,17,18,19.40
2007,08,27,17,19,19.50